Regional Weather Roundup
Issued by NWS

Home | Current Version | Previous Version | Graphics & Text | Print | Product List | Glossary On
Versions: 1 2 3 4 5 6 7 8 9 10 11 12 13 14 15 16 17 18 19 20 21 22 23 24 25 26 27 28 29 30 31 32 33 34 35 36 37 38 39 40 41 42 43 44 45 46 47 48 49 50
000
ASUS43 KTOP 060859
RWRKS

WEATHER ROUNDUP FOR KANSAS
NATIONAL WEATHER SERVICE GOODLAND KS
300 AM CST TUE DEC 06 2016

NOTE:  "FAIR" INDICATES FEW OR NO CLOUDS BELOW 12,000 FEET WITH NO
SIGNIFICANT WEATHER AND/OR OBSTRUCTIONS TO VISIBILITY.

KSZ001>006-013>018-027>032-041>047-061000-
NORTHWEST KANSAS

CITY           SKY/WX    TMP DP  RH WIND       PRES   REMARKS
GOODLAND       CLEAR     14   7  73 NW10      30.00R WCI   1
HAYS           CLEAR     27  18  69 N13       30.00R WCI  16
HILL CITY      CLEAR     24  16  71 N9        30.01R
RUSSELL        PTCLDY    28  17  63 N15       29.98R WCI  16
$$

KSZ061>065-074>080-084>089-061000-
SOUTHWEST KANSAS

CITY           SKY/WX    TMP DP  RH WIND       PRES   REMARKS
DODGE CITY     CLOUDY    27  17  66 N21       29.97R WCI  13
ELKHART          N/A     24   6  46 NW9         N/A
GARDEN CITY    CLEAR     24  15  68 N14       29.99R WCI  12
GREAT BEND     CLEAR     30  19  63 N20       29.97R WCI  17
LIBERAL        CLOUDY    28  14  54 NW17      29.98R WCI  16
$$

KSZ066>073-081>083-090>101-061000-
SOUTHEAST KANSAS

CITY           SKY/WX    TMP DP  RH WIND       PRES   REMARKS
CHANUTE        CLOUDY    34  33  96 NW5       29.82R FOG
COFFEYVILLE    FOG       31  30  96 NW3       29.82R VSB 1/4
HUTCHINSON     CLEAR     32  23  69 N15G23      N/A  WCI  22
MEDICINE LODGE   N/A     33  26  75 N16       29.92R WCI  23
NEWTON         CLEAR     32  27  81 N20G25    29.90R WCI  20
PARSONS        CLOUDY    29  28  96 CALM      29.83R FOG
WICHITA INTL   MOCLDY    36  29  75 N21G28    29.90R WCI  25
WICHITA JABRA  CLEAR     34  29  82 N23       29.88R WCI  22
WINFIELD       MOCLDY    37  34  89 N20G25    29.87R WCI  27
$$

KSZ007>012-019>026-033>040-048>060-102>105-061000-
NORTHEAST KANSAS

CITY           SKY/WX    TMP DP  RH WIND       PRES   REMARKS
CONCORDIA      CLOUDY    31  20  63 N15G23    29.97R WCI  20
EMPORIA        CLOUDY    36  31  82 N18G29    29.87R WCI  26
LAWRENCE       CLOUDY    38  35  89 NW16      29.85R WCI  29
MANHATTAN      CLOUDY    35  24  64 N9G17     29.94R
OLATHE IND     CLOUDY    36  34  92 NW13      29.83R WCI  27
OLATHE EXE     CLOUDY    37  34  89 NW10      29.81R WCI  30
SALINA         PTCLDY    33  22  63 N18       29.96R WCI  22
TOPEKA BILLARD CLOUDY    37  30  75 N12G29    29.89R WCI  29
TOPEKA FORBES  CLOUDY    38  30  73 N25G35    29.87R WCI  27
$$



USA.gov is the U.S. government's official web portal to all federal, state and local government web resources and services.